Regional Weather Roundup
Issued by NWS Newport/Morehead, NC

Current Version | Previous Version | Text Only | Print | Product List | Glossary On
Versions: 1 2 3 4 5 6 7 8 9 10 11 12 13 14 15 16 17 18 19 20 21 22 23 24 25 26 27 28 29 30 31 32 33 34 35 36 37 38 39 40 41 42 43 44 45 46 47 48 49 50
000 ASUS42 KMHX 221210 RWRMHX WEATHER ROUNDUP FOR EASTERN NORTH CAROLINA NATIONAL WEATHER SERVICE NEWPORT/MOREHEAD CITY NC 800 AM EDT FRI AUG 22 2014 NOTE: "FAIR" INDICATES FEW OR NO CLOUDS BELOW 12,000 FEET WITH NO SIGNIFICANT WEATHER AND/OR OBSTRUCTIONS TO VISIBILITY NCZ015>017-031-032-045>047-102-103-221300- NORTH COAST CITY SKY/WX TMP DP RH WIND PRES REMARKS EDENTON CLOUDY 74 73 94 CALM 29.99R ELIZABETH CITY CLOUDY 75 73 93 CALM 29.98R KITTY HAWK CLOUDY 73 71 95 CALM 29.96F MANTEO PTSUNNY 75 72 88 CALM 29.98S $$ NCZ045>047-081-094-103-104-221300- CENTRAL COAST CITY SKY/WX TMP DP RH WIND PRES REMARKS FRISCO PTSUNNY 79 76 90 NW5 29.97S SWANQUARTER N/A 77 N/A N/A NW3 29.97R $$ NCZ095-097-098-100-101-221300- SOUTHERN COAST CITY SKY/WX TMP DP RH WIND PRES REMARKS BEAUFORT MOSUNNY 80 73 79 W3 30.00R CEDAR ISLAND N/A 81 N/A N/A W3 30.03S JACKSONVILLE MOSUNNY 76 74 93 W5 30.00R NEWPORT NOT AVBL PINEY ISLAND PTSUNNY 82 78 88 W5 29.99R WILMINGTON PTSUNNY 78 75 90 W5 30.01R $$ NCZ011>013-027>030-043-044-078>080-089-090>093-098-221300- COASTAL PLAIN CITY SKY/WX TMP DP RH WIND PRES REMARKS AHOSKIE PTSUNNY 73 71 93 CALM 30.01R CLINTON SUNNY 77 73 89 CALM 30.03R ELIZABETHTOWN SUNNY 78 74 87 NW3 30.02R GOLDSBORO SUNNY 76 75 98 W5 30.00R GREENVILLE MOSUNNY 77 75 94 W3 30.02S FOG HAVELOCK SUNNY 79 73 82 W5 30.01R KENANSVILLE SUNNY 77 71 81 W3 30.03R KINSTON MOSUNNY 77 72 83 NW5 30.01R NEW BERN MOSUNNY 79 73 82 CALM 30.01R RICHLANDS PTSUNNY 75 72 88 CALM 30.01S ROANOKE RAPIDS NOT AVBL ROCKY MOUNT MOSUNNY 76 72 87 W5 30.01R WASHINGTON PTSUNNY 75 73 91 CALM 30.00S WHITEVILLE MOSUNNY 78 74 88 CALM 30.02R $$ AMZ130-135-150-152-154-156-158-170-250-252-270-ANZ085-086-088-633-658-670-221300- MARINE OBSERVATIONS STATION/POSITION TIME TEMP WIND PRES WAVE SWELL AIR SEA DIR/SP/G HT/PER HT/PER (UTC) (F) (DEG/KT/KT) (MB) (FT/S) (FT/S) CHESAPEAKE LIGHT 1100 78 200/ 10/ 10 1014.7 BUOY 44014 1200 77 78 190/ 6/ 6 1013.8 2/ 7 2/ 7 DUCK 1200 76 78 280/ 4/ 5 1014.2 2E DUCK 1200 N/A 2/ 7 OREGON INLET 1200 76 83 340/ 5/ 9 1014.9 BUOY 44095 1200 80 N/A 2/ 8 20E OREGON INLET NOT AVBL HATTERAS CG 1200 81 82 330/ 8/ 10 1015.4 DIAMOND BUOY 1200 82 260/ 10/ 12 1014.9 2/ 9 2/ 9 CAPE LOOKOUT 1200 82 260/ 8/ 10 1015.7 BEAUFORT LAB 1200 81 82 290/ 5/ 8 1015.6 30 SE NEW RIVER 1200 82 82 270/ 10/ 12 1015.4 2/ 5 2/10 5 SE WRIGHTSVILL 1200 77 82 260/ 4/ 6 N/A BUOY 41002 1059 82 82 260/ 12/ 14 1017.7 2/ 9 2/ 9 BUOY 41004 1200 84 84 260/ 8/ 10 1016.1 2/ 8 2/ 8 $$

USA.gov is the U.S. government's official web portal to all federal, state and local government web resources and services.